Regional Weather Roundup
Issued by NWS

Home | Current Version | Previous Version | Text Only | Print | Product List | Glossary Off
Versions: 1 2 3 4 5 6 7 8 9 10 11 12 13 14 15 16 17 18 19 20 21 22 23 24 25 26 27 28 29 30 31 32 33 34 35 36 37 38 39 40 41 42 43 44 45 46 47 48 49 50

000
ASUS45 KBOU 251607
RWRCO

WEATHER ROUNDUP FOR COLORADO
NATIONAL WEATHER SERVICE DENVER/BOULDER CO
900 AM MST SUN JAN 25 2015

NOTE: "FAIR" INDICATES FEW OR NO CLOUDS BELOW 12000 FEET WITH NO
SIGNIFICANT WEATHER AND/OR OBSTRUCTIONS TO VISIBILITY.

COZ001>005-013-030-031-251700-
...NORTHWEST COLORADO...

CITY           SKY/WX    TMP DP  RH WIND       PRES   REMARKS
CRAIG          CLOUDY    17  14  88 SE3       30.39R
HAYDEN         CLOUDY    28  19  69 CALM      30.37S
MEEKER         MOSUNNY   17  12  80 CALM      30.39S
MOUNT WERNER   NOT AVBL
STEAMBOAT SPGS CLOUDY    28  22  78 CALM      30.37R
WALDEN         MOSUNNY   30  25  80 S6        30.31R WCI  24
$$

COZ006>008-011-251700-
...WEST CENTRAL VALLEYS...

CITY           SKY/WX    TMP DP  RH WIND       PRES   REMARKS
GRAND JUNCTION SUNNY     29  17  61 SE6       30.39S WCI  23
MONTROSE       MOSUNNY   27  17  66 SE6       30.42R WCI  20
EAGLE          PTSUNNY   21  19  93 CALM      30.43R
RIFLE          MOSUNNY   23  18  81 CALM      30.43R
DELTA          NOT AVBL
NUCLA          MOSUNNY   28  18  64 SE3       30.40S
$$

COZ017>023-064>068-251700-
...SOUTHWEST COLORADO...

CITY           SKY/WX    TMP DP  RH WIND       PRES   REMARKS
DURANGO        SUNNY     23  19  85 CALM      30.33R
CORTEZ         SUNNY     28  19  69 CALM      30.34R
PAGOSA SPRINGS SUNNY     25  17  71 CALM      30.33R
TELLURIDE      MOSUNNY   29  16  57 CALM      30.37S
WOLF CREEK PAS NOT AVBL
$$

COZ009-010-012-014-032>034-037-058>063-251700-
...CENTRAL COLORADO...

CITY           SKY/WX    TMP DP  RH WIND       PRES   REMARKS
ASPEN          CLOUDY    29  20  69 S6        30.39R WCI  23
BUENA VISTA    MOSUNNY   39  20  47 NW21G26   30.29R
COPPER MTN     HAZE      25  19  80 W23G30    30.38R VSB 3/4 WCI  10
BERTHOUD PASS  NOT AVBL
COTTONWOOD PAS MOSUNNY   34  18  51 NW10G21   30.30R WCI  26
GUNNISON       MOSUNNY   -6 -18  54 CALM      30.46R
KREMMLING      CLOUDY    34  23  64 W5        30.36S WCI  30
LEADVILLE      CLOUDY    26  16  65 N13       30.35R WCI  15
MONARCH PASS   CLOUDY    18  14  86 MISG      30.45R
SALIDA         MOSUNNY   40  19  43 CALM      30.35S
SUNLIGHT       CLOUDY    28  27  93 NW6         N/A  WCI  22
WILKERSON PASS MOSUNNY   28  16  59 W6        30.32R WCI  22
$$

COZ069>075-251700-
...SAN LUIS VALLEY/SANGRE DE CRISTO MOUNTAINS...

CITY           SKY/WX    TMP DP  RH WIND       PRES   REMARKS
ALAMOSA        MOSUNNY   22  12  65 CALM      30.32S
LA VETA PASS   NOT AVBL
SAGUACHE       MOSUNNY   32  21  64 NE10      30.32S WCI  24
$$

COZ035-036-038>040-251700-
...NORTHERN COLORADO FRONT RANGE...

CITY           SKY/WX    TMP DP  RH WIND       PRES   REMARKS
DENVER INTL AP PTSUNNY   40  28  62 SW10      30.16R
DMNS CITY PARK   N/A     50  24  36 W7        30.17S
AURORA         PTSUNNY   42  26  52 W8        30.18R
FRONT RANGE AP NOT AVBL
ERIE MUNI ARPT SUNNY     36  29  78 S3        30.15F
BOULDER MUN AP SUNNY     41  28  60 CALM      30.14F
CENTENNIAL     MOSUNNY   44  28  53 CALM      30.18R
BROOMFIELD     MOSUNNY   46  25  42 NW6       30.17R
FORT COLLINS   MOSUNNY   34  27  75 S5        30.16F WCI  30
LONGMONT       MOSUNNY   38  30  73 CALM      30.17F
$$

COZ041-046-047-076>085-087-088-251700-
...PIKES PEAK/PALMER DIVIDE AND SOUTHERN FOOTHILLS...

CITY           SKY/WX    TMP DP  RH WIND       PRES   REMARKS
COLO. SPRINGS  MOSUNNY   34  27  75 S3        30.20R
A. F. ACADEMY  SUNNY     32  24  72 SE9       30.19R WCI  24
ELLICOTT       SUNNY    N/A N/A N/A NW3       30.19R
FALCON         SUNNY     36  24  63 W7        30.20R
FORT CARSON    SUNNY     34  27  75 S3        30.18S
LIMON          CLOUDY    35  28  75 W3        30.18R
MONUMENT HILL  SUNNY     37  25  60 NW7       30.19R
TRINIDAD       SUNNY     35  25  66 SW14      30.22F WCI  26
$$

COZ042>045-048>051-090-091-251700-
...NORTHEAST COLORADO...

CITY           SKY/WX    TMP DP  RH WIND       PRES   REMARKS
GREELEY ARPT   CLOUDY    34  25  69 CALM      30.15S
AKRON          PTSUNNY   38  29  70 W12       30.14R
BURLINGTON     SUNNY     40  29  64 NW26      30.13R
WRAY           SUNNY     47  29  50 NW20G26   30.12S
STERLING       CLOUDY    41  34  75 CALM      30.14S
HOLYOKE        SUNNY     45  28  53 NW15G24   30.10S
FORT MORGAN    CLOUDY    36  29  76 W9        30.16F
$$

COZ086-089-092>099-251700-
...SOUTHEAST COLORADO...

CITY           SKY/WX    TMP DP  RH WIND       PRES   REMARKS
PUEBLO         SUNNY     35  28  75 W6        30.19F WCI  30
LA JUNTA       SUNNY     37  28  70 W13       30.20R
LAMAR          SUNNY     41  29  62 W15       30.18R
SPRINGFIELD      N/A     42  28  57 NW12      30.18R
$$


USA.gov is the U.S. government's official web portal to all federal, state and local government web resources and services.